Volver al catálogo

SKYSAT C4

ActivoCienciaSSO
NORAD 41771·PAYLOAD·🇺🇸 United States

Lanzado Sep 16, 2016 desde Guiana Space Centre

Loading…

Próximos Pases (próximas 24 horas)

TLE

ActualizadoSource: CelesTrak SupGP

Época: Sep 14, 2026, 20:49 UTC

1 41771C 16058B   26257.86789352  .00017364  00000+0  29825-3 0  2576
2 41771  96.9160 276.0347 0000198 104.1333 184.5614 15.51166274    13

Sigue SKYSAT C4 en tiempo real con AllMySat

Download on the App Store